Погода в Филинской

Россия / Архангельская область     60°48′33″N   43°01′08″E
темп.,
°C
ветер,
м/с
пор.,
м/с
влажн.,
%
обл.,
%
осадки,
мм/ч
давл.,
гПа
погр.,
м
15 августа, пн
пн1500:00+13ююв22765 0.0 102319
03:00+12ю22805 0.0 102339
06:00+14ююз14862 0.0 1023106
09:00+21зюз23580 0.0 1023597
12:00+24з23405 0.0 10241421
15:00+26зсз22365 0.0 10231843
18:00+24зюз11535 0.0 102311
21:00+17юз006958 0.0 102411
16 августа, вт
вт1600:00+15ююз117422 0.0 102511
03:00+14ю11775 0.0 102610
06:00+16ю117828 0.0 102636
09:00+23ююв225964 0.0 1026431
12:00+26ююз224540 0.0 10251708
15:00+23ююз2258100 0.0 102432
18:00+21ююз2265100 0.0 102426
21:00+20ююз1172100 0.0 102414
17 августа, ср
ср1700:00+19ю2273100 0.0 102528
03:00+16ююз118687 0.0 102511
06:00+17ююз118098 0.0 102441
09:00+23ю235841 0.0 1024420
12:00+26ю234430 0.0 10232024
15:00+24ю245171 0.0 1023532
18:00+22ююв125983 0.0 102227
21:00+19ююв227188 0.0 102326
18 августа, чт
чт1800:00+19ю117075 0.0 102318
03:00+16ююз11804 0.0 102411
06:00+17ю12781 0.0 102451
09:00+23ю23540 0.0 1024439
12:00+26ю23425 0.0 10241962
15:00+27ю23386 0.0 10242282
18:00+25ююв12564 0.0 102423
21:00+19ююв11730 0.0 102511
19 августа, пт
пт1900:00+17ююв22750 0.0 102613
03:00+16ю22793 0.0 102613
06:00+17ююз23773 0.0 102875
09:00+24ююз23522 0.0 1028437
12:00+27ююз34390 0.0 10271990
15:00+28ююз34374 0.0 10262257
18:00+25ююз255688 0.0 1026163
21:00+19ююз2271100 0.0 102730